TimeCDT,TemperatureF,Dew PointF,Humidity,Sea Level PressureIn,VisibilityMPH,Wind Direction,Wind SpeedMPH,Gust SpeedMPH,PrecipitationIn,Events,Conditions,WindDirDegrees,DateUTC
12:53 AM,71.1,68.0,90,29.95,10.0,NNE,3.5,-,N/A,,Clear,30,2012-09-17 05:53:00
1:53 AM,69.1,68.0,96,29.94,6.0,Calm,Calm,-,N/A,,Clear,0,2012-09-17 06:53:00
2:53 AM,68.0,66.9,96,29.91,7.0,Calm,Calm,-,N/A,,Clear,0,2012-09-17 07:53:00
3:53 AM,70.0,68.0,93,29.89,6.0,ESE,3.5,-,N/A,,Clear,120,2012-09-17 08:53:00
4:53 AM,71.1,70.0,96,29.88,9.0,ESE,4.6,-,N/A,,Scattered Clouds,120,2012-09-17 09:53:00
5:12 AM,71.6,69.8,94,29.86,10.0,ESE,4.6,-,N/A,,Mostly Cloudy,120,2012-09-17 10:12:00
5:53 AM,72.0,70.0,93,29.89,10.0,ESE,4.6,-,N/A,,Mostly Cloudy,110,2012-09-17 10:53:00
6:00 AM,71.6,69.8,94,29.87,10.0,ESE,3.5,-,N/A,,Mostly Cloudy,120,2012-09-17 11:00:00
6:28 AM,71.6,69.8,94,29.88,10.0,ESE,3.5,-,N/A,,Overcast,120,2012-09-17 11:28:00
7:35 AM,73.4,71.6,94,29.87,9.0,SSE,5.8,-,N/A,,Overcast,150,2012-09-17 12:35:00
7:53 AM,73.0,71.1,93,29.89,7.0,SE,4.6,-,0.00,Rain,Light Rain,140,2012-09-17 12:53:00
9:53 AM,75.0,73.0,94,29.88,9.0,SE,6.9,-,0.00,,Overcast,140,2012-09-17 14:53:00
10:53 AM,75.0,73.0,94,29.87,4.0,SE,6.9,-,0.01,Rain,Rain,140,2012-09-17 15:53:00
11:17 AM,73.4,71.6,94,29.85,10.0,South,6.9,-,0.01,Rain,Light Rain,180,2012-09-17 16:17:00
11:30 AM,75.2,73.4,94,29.85,2.5,SSE,6.9,-,0.08,Rain,Heavy Rain,160,2012-09-17 16:30:00
11:37 AM,75.2,73.4,94,29.84,0.8,South,6.9,-,0.20,Rain,Heavy Rain,180,2012-09-17 16:37:00
11:41 AM,73.4,73.4,100,29.85,1.0,SW,3.5,-,0.21,Rain,Heavy Rain,220,2012-09-17 16:41:00
11:48 AM,73.4,73.4,100,29.84,3.0,Calm,Calm,-,0.22,Rain,Light Rain,0,2012-09-17 16:48:00
11:53 AM,73.9,73.0,97,29.86,5.0,Calm,Calm,-,0.22,Rain,Light Rain,0,2012-09-17 16:53:00
12:01 PM,75.2,73.4,94,29.84,2.5,South,3.5,-,0.02,Rain,Heavy Rain,190,2012-09-17 17:01:00
12:05 PM,75.2,73.4,94,29.84,1.8,South,3.5,-,0.05,Rain,Heavy Rain,180,2012-09-17 17:05:00
12:12 PM,75.2,73.4,94,29.84,2.0,Calm,Calm,-,0.05,Rain,Rain,0,2012-09-17 17:12:00
12:15 PM,75.2,73.4,94,29.84,3.0,SW,3.5,-,0.06,Rain,Light Rain,220,2012-09-17 17:15:00
12:29 PM,73.4,71.6,94,29.84,1.8,NW,3.5,-,0.10,Rain,Heavy Rain,320,2012-09-17 17:29:00
12:38 PM,73.4,71.6,94,29.83,2.0,Calm,Calm,-,0.13,Rain,Rain,0,2012-09-17 17:38:00
12:41 PM,73.4,71.6,94,29.83,2.5,Calm,Calm,-,0.13,Rain,Rain,0,2012-09-17 17:41:00
12:43 PM,73.4,73.4,100,29.83,3.0,Calm,Calm,-,0.14,Rain,Rain,0,2012-09-17 17:43:00
12:53 PM,73.0,72.0,96,29.85,4.0,Variable,3.5,-,0.15,Rain,Rain,0,2012-09-17 17:53:00
1:00 PM,73.4,71.6,94,29.83,5.0,Calm,Calm,-,0.01,Rain,Rain,0,2012-09-17 18:00:00
1:13 PM,73.4,71.6,94,29.83,4.0,Calm,Calm,-,0.03,Rain,Heavy Rain,0,2012-09-17 18:13:00
1:53 PM,73.0,71.1,93,29.82,5.0,NNW,3.5,-,0.10,Rain,Rain,340,2012-09-17 18:53:00
2:11 PM,73.4,71.6,94,29.79,5.0,North,5.8,-,0.02,Rain,Rain,360,2012-09-17 19:11:00
2:18 PM,73.4,71.6,94,29.79,5.0,North,6.9,-,0.03,Rain,Rain,360,2012-09-17 19:18:00
2:38 PM,73.4,71.6,94,29.78,6.0,NNE,6.9,-,0.06,Rain,Rain,30,2012-09-17 19:38:00
2:53 PM,73.9,72.0,93,29.79,6.0,NNE,6.9,-,0.07,Rain,Rain,30,2012-09-17 19:53:00
3:06 PM,73.4,71.6,94,29.76,10.0,NE,8.1,-,0.00,Rain,Light Rain,40,2012-09-17 20:06:00
3:41 PM,73.4,71.6,94,29.75,10.0,NE,9.2,-,0.00,,Overcast,40,2012-09-17 20:41:00
3:53 PM,73.9,71.1,91,29.77,10.0,NNE,6.9,-,0.00,,Overcast,30,2012-09-17 20:53:00
4:04 PM,75.2,71.6,89,29.75,10.0,NNE,8.1,-,N/A,,Overcast,30,2012-09-17 21:04:00
4:48 PM,75.2,71.6,89,29.74,10.0,NE,8.1,-,N/A,,Overcast,40,2012-09-17 21:48:00
4:53 PM,75.0,71.1,87,29.76,10.0,NE,8.1,-,N/A,,Overcast,40,2012-09-17 21:53:00
5:00 PM,75.2,71.6,89,29.74,10.0,NNE,8.1,-,N/A,,Overcast,30,2012-09-17 22:00:00
5:53 PM,75.0,71.1,87,29.75,10.0,NE,4.6,-,N/A,,Overcast,50,2012-09-17 22:53:00
6:23 PM,73.4,71.6,94,29.74,10.0,NNE,4.6,-,N/A,,Overcast,20,2012-09-17 23:23:00
6:35 PM,73.4,71.6,94,29.74,10.0,NNE,4.6,-,N/A,,Overcast,20,2012-09-17 23:35:00
6:53 PM,73.0,71.1,93,29.76,10.0,North,3.5,-,N/A,,Overcast,360,2012-09-17 23:53:00
7:53 PM,72.0,70.0,93,29.76,10.0,Calm,Calm,-,N/A,,Mostly Cloudy,0,2012-09-18 00:53:00
8:53 PM,71.1,69.1,93,29.78,10.0,Calm,Calm,-,N/A,,Mostly Cloudy,0,2012-09-18 01:53:00
9:53 PM,71.1,70.0,96,29.79,10.0,Calm,Calm,-,N/A,,Overcast,0,2012-09-18 02:53:00
10:24 PM,69.8,69.8,100,29.78,10.0,Calm,Calm,-,N/A,,Overcast,0,2012-09-18 03:24:00
10:53 PM,71.1,70.0,96,29.79,10.0,Calm,Calm,-,N/A,,Overcast,0,2012-09-18 03:53:00
11:14 PM,69.8,69.8,100,29.77,6.0,NNW,3.5,-,0.05,Rain,Light Rain,340,2012-09-18 04:14:00
11:53 PM,70.0,69.1,97,29.79,10.0,Calm,Calm,-,0.05,,Overcast,0,2012-09-18 04:53:00